Location: Izdebno
(52.6670°N, 16.2170°E)
Time: 09:40:42
(UTC+01:00)

Transit 2A - Pass Details

Date: 05 February 2023
Orbit: 591 x 964 km, 66.7° (Epoch: 21 March)

Event Time Altitude Azimuth Distance (km) Brightness Sun altitude
Rises 21:27:41 0° 305° (NW) 3,309 10.1 -41.4°
Reaches altitude 10° 21:30:38 10° 322° (NW) 2,447 9.2 -41.8°
Enters shadow 21:32:18 16° 337° (NNW) 2,082 8.6 -42.0°
Maximum altitude 21:34:57 21° 11° (N) 1,854 - -42.3°
Drops below altitude 10° 21:39:30 10° 60° (ENE) 2,615 - -42.8°
Sets 21:42:47 0° 75° (ENE) 3,602 - -43.2°
